{"data":{"norad_id":63664,"intl_designator":"2025-085A","name":"STARLINK-11651 [DTC]","alt_names":[],"object_type":"PAYLOAD","status":"ACTIVE","operator":null,"country":"US","launch_date":"2025-04-28","launch_site_code":"AFETR","launch_vehicle":null,"mission":null,"orbit_class":"UNKNOWN","rcs_meters":null,"size_class":null,"mass_kg":null,"dimensions":null,"purposes":["comms"],"wikipedia_slug":null,"has_3d_model":false,"image_url":null,"decayed_at":null,"tle_current":{"epoch":"2026-05-25T02:28:18.019776Z","epoch_age_seconds":76737,"freshness":"FRESH","line1":"1 63664U 25085A   26145.10298634  .00245487  00000+0  18493-2 0  9992","line2":"2 63664  43.0003 177.4684 0001927 257.5514 102.5138 15.70985671 62278","mean_motion":15.70985671,"eccentricity":0.0001927,"inclination_deg":43.0003,"raan_deg":177.4684,"arg_perigee_deg":257.5514,"mean_anomaly_deg":102.5138,"bstar":0.0018493,"rev_number":6227,"period_min":91.662198235289,"perigee_km":354.78105538764,"apogee_km":357.37642213336,"semimajor_km":6734.2157387605,"source":"CELESTRAK","updated_at":"2026-05-25T13:38:20.089860Z"}}}